When you browse on this site, cookies collect data to enhance your experience and personalize the content and advertising you see.
Visit our Privacy Policy to learn more. By continuing to use the site, you agree to this use of cookies and data.

Tiempo cada hora Canberra

Hoy, 12 Julio, Domingo

Tiempo Temperatura Precipitaciones Viento Presión Humedad
00:00 +4°C° 0 mm 0 mps 707 mmHg 94%
01:00 +4°C° 0 mm 0 mps 707 mmHg 95%
02:00 +5°C° 0 mm 1 mps 707 mmHg 95%
03:00 +5°C° 0 mm 1 mps 707 mmHg 95%
04:00 +6°C° 0 mm 1 mps 707 mmHg 95%
05:00 +6°C° 0 mm 1 mps 707 mmHg 94%
06:00 +5°C° 0 mm 0 mps 708 mmHg 94%
07:00 +5°C° 0 mm 0 mps 708 mmHg 93%
08:00 +7°C° 0 mm 1 mps 708 mmHg 87%
09:00 +9°C° 0 mm 1 mps 708 mmHg 81%
10:00 +10°C° 0 mm 1 mps 709 mmHg 75%
11:00 +11°C° 0.3 mm 1 mps 708 mmHg 73%
12:00 +12°C° 0.3 mm 2 mps 708 mmHg 71%
13:00 +12°C° 0.3 mm 2 mps 708 mmHg 69%
14:00 +12°C° 0.6 mm 2 mps 708 mmHg 73%
15:00 +10°C° 0.6 mm 2 mps 708 mmHg 77%
16:00 +10°C° 0.6 mm 2 mps 707 mmHg 81%
17:00 +9°C° 0.4 mm 2 mps 708 mmHg 85%
18:00 +9°C° 0.4 mm 1 mps 708 mmHg 89%
19:00 +8°C° 0.4 mm 1 mps 708 mmHg 93%
20:00 +8°C° 0.9 mm 1 mps 708 mmHg 94%
21:00 +8°C° 0.9 mm 1 mps 709 mmHg 95%
22:00 +8°C° 0.9 mm 1 mps 709 mmHg 96%
23:00 +8°C° 1.7 mm 1 mps 709 mmHg 96%

Mañana, 13 Julio, Lunes

Tiempo Temperatura Precipitaciones Viento Presión Humedad
00:00 +8°C° 1.7 mm 1 mps 709 mmHg 97%
01:00 +8°C° 1.7 mm 1 mps 708 mmHg 97%
02:00 +8°C° 2.2 mm 1 mps 708 mmHg 97%
03:00 +8°C° 2.2 mm 1 mps 708 mmHg 96%
04:00 +8°C° 2.2 mm 1 mps 708 mmHg 96%
05:00 +8°C° 0.9 mm 1 mps 709 mmHg 96%
06:00 +8°C° 0.9 mm 1 mps 709 mmHg 96%
07:00 +8°C° 0.9 mm 1 mps 710 mmHg 96%
08:00 +7°C° 0.3 mm 2 mps 710 mmHg 93%
09:00 +8°C° 0.3 mm 2 mps 710 mmHg 90%
10:00 +9°C° 0.3 mm 2 mps 711 mmHg 87%
11:00 +9°C° 0.1 mm 2 mps 711 mmHg 83%
12:00 +10°C° 0.1 mm 2 mps 710 mmHg 80%
13:00 +10°C° 0.1 mm 3 mps 710 mmHg 77%
14:00 +10°C° 0.1 mm 3 mps 710 mmHg 79%
15:00 +9°C° 0.1 mm 3 mps 710 mmHg 80%
16:00 +8°C° 0.1 mm 4 mps 710 mmHg 82%
17:00 +6°C° 0 mm 4 mps 710 mmHg 84%
18:00 +5°C° 0 mm 3 mps 711 mmHg 87%
19:00 +4°C° 0 mm 3 mps 711 mmHg 89%
20:00 +4°C° 0.9 mm 3 mps 711 mmHg 90%
21:00 +4°C° 0.9 mm 3 mps 711 mmHg 91%
22:00 +4°C° 0.9 mm 3 mps 712 mmHg 92%
23:00 +5°C° 1.2 mm 3 mps 712 mmHg 93%

Pasado mañana, 14 Julio, Martes

Tiempo Temperatura Precipitaciones Viento Presión Humedad
00:00 +6°C° 1.2 mm 2 mps 712 mmHg 94%
01:00 +6°C° 1.2 mm 2 mps 712 mmHg 95%
02:00 +6°C° 0.3 mm 2 mps 712 mmHg 95%
03:00 +6°C° 0.3 mm 2 mps 712 mmHg 94%
04:00 +6°C° 0.3 mm 2 mps 712 mmHg 94%
05:00 +7°C° 0.1 mm 2 mps 712 mmHg 94%
06:00 +7°C° 0.1 mm 3 mps 713 mmHg 94%
07:00 +7°C° 0.1 mm 3 mps 713 mmHg 94%
08:00 +7°C° 0 mm 4 mps 713 mmHg 89%
09:00 +8°C° 0 mm 5 mps 714 mmHg 84%
10:00 +8°C° 0 mm 5 mps 714 mmHg 79%
11:00 +9°C° 0 mm 5 mps 714 mmHg 74%
12:00 +10°C° 0 mm 5 mps 713 mmHg 68%
13:00 +10°C° 0 mm 5 mps 713 mmHg 62%
14:00 +10°C° 0 mm 5 mps 713 mmHg 68%
15:00 +10°C° 0 mm 4 mps 713 mmHg 74%
16:00 +9°C° 0 mm 3 mps 713 mmHg 79%
17:00 +8°C° 0 mm 3 mps 713 mmHg 84%
18:00 +6°C° 0 mm 2 mps 713 mmHg 88%
19:00 +5°C° 0 mm 2 mps 714 mmHg 93%
20:00 +4°C° 0 mm 2 mps 714 mmHg 93%
21:00 +4°C° 0 mm 2 mps 714 mmHg 93%
22:00 +4°C° 0 mm 2 mps 714 mmHg 92%
23:00 +4°C° 0 mm 2 mps 713 mmHg 93%

15 Julio, Miércoles

Tiempo Temperatura Precipitaciones Viento Presión Humedad
00:00 +3°C° 0 mm 2 mps 713 mmHg 93%
01:00 +3°C° 0 mm 2 mps 713 mmHg 93%
02:00 +3°C° 0 mm 2 mps 713 mmHg 91%
03:00 +4°C° 0 mm 2 mps 713 mmHg 89%
04:00 +4°C° 0 mm 2 mps 713 mmHg 87%
05:00 +3°C° 0 mm 2 mps 713 mmHg 88%
06:00 +3°C° 0 mm 2 mps 713 mmHg 89%
07:00 +2°C° 0 mm 2 mps 713 mmHg 90%
08:00 +3°C° 0 mm 3 mps 713 mmHg 82%
09:00 +5°C° 0 mm 4 mps 713 mmHg 73%
10:00 +7°C° 0 mm 4 mps 713 mmHg 65%
11:00 +7°C° 0 mm 5 mps 713 mmHg 64%
12:00 +8°C° 0 mm 5 mps 712 mmHg 63%
13:00 +8°C° 0 mm 5 mps 712 mmHg 62%
14:00 +8°C° 0 mm 4 mps 712 mmHg 62%
15:00 +8°C° 0 mm 4 mps 712 mmHg 63%
16:00 +8°C° 0 mm 4 mps 712 mmHg 64%
17:00 +7°C° 0 mm 3 mps 712 mmHg 71%
18:00 +6°C° 0 mm 2 mps 712 mmHg 78%
19:00 +4°C° 0 mm 2 mps 712 mmHg 85%
20:00 +4°C° 0 mm 2 mps 712 mmHg 87%
21:00 +3°C° 0 mm 2 mps 712 mmHg 89%
22:00 +2°C° 0 mm 2 mps 713 mmHg 91%
23:00 +2°C° 0 mm 2 mps 712 mmHg 92%

16 Julio, Jueves

Tiempo Temperatura Precipitaciones Viento Presión Humedad
00:00 +2°C° 0 mm 2 mps 712 mmHg 92%
01:00 +1°C° 0 mm 2 mps 712 mmHg 93%
02:00 +2°C° 0 mm 2 mps 712 mmHg 92%
03:00 +2°C° 0 mm 2 mps 712 mmHg 91%
04:00 +3°C° 0 mm 1 mps 712 mmHg 91%
05:00 +3°C° 0 mm 1 mps 712 mmHg 91%
06:00 +2°C° 0 mm 1 mps 712 mmHg 92%
07:00 +2°C° 0 mm 1 mps 713 mmHg 92%
08:00 +3°C° 0 mm 2 mps 713 mmHg 84%
09:00 +4°C° 0 mm 3 mps 713 mmHg 76%
10:00 +7°C° 0 mm 3 mps 714 mmHg 68%
11:00 +8°C° 0 mm 3 mps 713 mmHg 65%
12:00 +9°C° 0 mm 3 mps 713 mmHg 63%
13:00 +10°C° 0 mm 3 mps 713 mmHg 60%
14:00 +9°C° 0 mm 3 mps 713 mmHg 62%
15:00 +9°C° 0 mm 3 mps 713 mmHg 64%
16:00 +9°C° 0 mm 3 mps 713 mmHg 66%
17:00 +7°C° 0 mm 3 mps 713 mmHg 73%
18:00 +5°C° 0 mm 2 mps 713 mmHg 79%
19:00 +3°C° 0 mm 2 mps 714 mmHg 86%
20:00 +3°C° 0 mm 2 mps 714 mmHg 87%
21:00 +4°C° 0 mm 1 mps 714 mmHg 89%
22:00 +3°C° 0 mm 1 mps 714 mmHg 90%
23:00 +3°C° 0 mm 1 mps 714 mmHg 91%

17 Julio, Viernes

Tiempo Temperatura Precipitaciones Viento Presión Humedad
00:00 +2°C° 0 mm 1 mps 714 mmHg 92%
01:00 +2°C° 0 mm 1 mps 714 mmHg 93%
02:00 +2°C° 0 mm 1 mps 714 mmHg 93%
03:00 +2°C° 0 mm 1 mps 713 mmHg 93%
04:00 +1°C° 0 mm 1 mps 713 mmHg 93%
05:00 +1°C° 0 mm 1 mps 714 mmHg 93%
06:00 +1°C° 0 mm 1 mps 714 mmHg 93%
07:00 +1°C° 0 mm 1 mps 714 mmHg 93%
08:00 +4°C° 0 mm 1 mps 714 mmHg 85%
09:00 +7°C° 0 mm 1 mps 715 mmHg 76%
10:00 +9°C° 0 mm 1 mps 715 mmHg 67%
11:00 +11°C° 0 mm 1 mps 715 mmHg 63%
12:00 +12°C° 0 mm 1 mps 714 mmHg 59%
13:00 +12°C° 0 mm 0 mps 714 mmHg 55%
14:00 +13°C° 0 mm 1 mps 714 mmHg 59%
15:00 +12°C° 0 mm 1 mps 713 mmHg 63%
16:00 +12°C° 0 mm 1 mps 713 mmHg 67%
17:00 +9°C° 0 mm 1 mps 713 mmHg 75%
18:00 +7°C° 0 mm 1 mps 713 mmHg 82%
19:00 +5°C° 0 mm 1 mps 713 mmHg 90%
20:00 +4°C° 0 mm 0 mps 713 mmHg 91%
21:00 +3°C° 0 mm 0 mps 713 mmHg 92%
22:00 +3°C° 0 mm 0 mps 714 mmHg 92%
23:00 +2°C° 0 mm 0 mps 713 mmHg 93%
Mostrar más